Terminal Aerodrome Forecast
Issued by NWS Lake Charles, LA

Home | Current Version | Previous Version | Text Only | Print | Product List | Glossary On
Versions: 1 2 3 4 5 6 7 8 9 10 11 12 13 14 15
000
FTUS44 KLCH 231700
TAFAEX
TAF
KAEX 231720Z 2318/2418 VRB03KT P6SM FEW025 SCT035=

USA.gov is the U.S. government's official web portal to all federal, state and local government web resources and services.